Tracking 28790 objects as of 19-Apr-2024
HD Live streaming from Space Station
objects crossing your sky now

STARLINK-4674

Track STARLINK-4674 now!
10-day predictions
STARLINK-4674 is classified as:


NORAD ID: 53591
Int'l Code: 2022-104D
Perigee: 545.9 km
Apogee: 547.9 km
Inclination: 53.2 °
Period: 95.4 minutes
Semi major axis: 6917 km
RCS: Unknown
Launch date: August 28, 2022
Source: United States (US)
Launch site: AIR FORCE EASTERN TEST RANGE (AFETR)
Your satellite tracking list
Your tracking list is empty




NASA's NSSDC Master Catalog

Two Line Element Set (TLE):
1 53591U 22104D   24110.20478566 -.00001421  00000-0 -71207-4 0  9999
2 53591  53.2169  99.5026 0001405 103.6287 256.4862 15.08827802 90833
Source of the keplerian elements: AFSPC